Time,TemperatureF,DewpointF,PressureIn,WindDirection,WindDirectionDegrees,WindSpeedMPH,WindSpeedGustMPH,Humidity,HourlyPrecipIn,Conditions,Clouds,dailyrainin,SoftwareType,DateUTC
2013-08-29 00:01:00,76.3,73.2,29.75,East,101,3.0,3.0,90,0.00,,CLR,0.00,VWS V14.01,2013-08-29 05:01:00,
2013-08-29 00:06:00,76.3,73.2,29.75,East,101,2.0,7.0,90,0.00,,CLR,0.00,VWS V14.01,2013-08-29 05:06:00,
2013-08-29 00:11:00,76.3,73.2,29.75,East,101,1.0,8.0,90,0.00,,CLR,0.00,VWS V14.01,2013-08-29 05:11:00,
2013-08-29 00:16:00,76.1,73.0,29.75,East,101,2.0,8.0,90,0.00,,CLR,0.00,VWS V14.01,2013-08-29 05:16:00,
2013-08-29 00:21:00,76.1,73.0,29.75,ESE,103,2.0,8.0,90,0.00,,CLR,0.00,VWS V14.01,2013-08-29 05:21:00,
2013-08-29 00:26:00,76.1,72.6,29.75,ESE,105,2.0,10.0,89,0.00,,CLR,0.00,VWS V14.01,2013-08-29 05:26:00,
2013-08-29 00:30:00,76.3,72.8,29.75,ESE,116,7.0,11.0,89,0.00,,CLR,0.00,VWS V14.01,2013-08-29 05:30:00,
2013-08-29 00:35:00,76.3,72.8,29.75,ESE,110,0.0,10.0,89,0.00,,CLR,0.00,VWS V14.01,2013-08-29 05:35:00,
2013-08-29 00:40:00,76.3,72.5,29.75,ESE,109,2.0,10.0,88,0.00,,CLR,0.00,VWS V14.01,2013-08-29 05:40:00,
2013-08-29 00:45:00,76.3,72.5,29.76,ESE,109,2.0,10.0,88,0.00,,CLR,0.00,VWS V14.01,2013-08-29 05:45:00,
2013-08-29 00:50:00,76.3,72.5,29.76,ESE,109,2.0,10.0,88,0.00,,CLR,0.00,VWS V14.01,2013-08-29 05:50:00,
2013-08-29 00:55:00,76.1,72.3,29.76,ESE,109,6.0,10.0,88,0.00,,CLR,0.00,VWS V14.01,2013-08-29 05:55:00,
2013-08-29 01:00:00,76.1,72.6,29.76,ESE,109,2.0,10.0,89,0.00,,CLR,0.00,VWS V14.01,2013-08-29 06:00:00,
2013-08-29 01:05:00,76.1,72.6,29.76,ESE,106,4.0,10.0,89,0.00,,CLR,0.00,VWS V14.01,2013-08-29 06:05:00,
2013-08-29 01:10:00,76.1,72.6,29.76,ESE,106,0.0,10.0,89,0.00,,CLR,0.00,VWS V14.01,2013-08-29 06:10:00,
2013-08-29 01:15:00,76.1,72.3,29.76,ESE,106,5.0,10.0,88,0.00,,CLR,0.00,VWS V14.01,2013-08-29 06:15:00,
2013-08-29 01:20:00,76.1,72.3,29.76,ESE,106,1.0,10.0,88,0.00,,CLR,0.00,VWS V14.01,2013-08-29 06:20:00,
2013-08-29 01:25:00,76.1,72.3,29.76,ESE,106,2.0,10.0,88,0.00,,CLR,0.00,VWS V14.01,2013-08-29 06:25:00,
2013-08-29 01:30:00,76.1,72.3,29.76,ESE,106,2.0,10.0,88,0.00,,CLR,0.00,VWS V14.01,2013-08-29 06:30:00,
2013-08-29 01:35:00,76.0,72.2,29.76,ESE,105,2.0,6.0,88,0.00,,CLR,0.00,VWS V14.01,2013-08-29 06:35:00,
2013-08-29 01:40:00,76.0,72.5,29.76,ESE,102,2.0,7.0,89,0.00,,CLR,0.00,VWS V14.01,2013-08-29 06:40:00,
2013-08-29 01:45:00,76.0,72.5,29.75,ESE,102,0.0,7.0,89,0.00,,CLR,0.00,VWS V14.01,2013-08-29 06:45:00,
2013-08-29 01:50:00,76.0,72.5,29.75,ESE,103,2.0,7.0,89,0.00,,CLR,0.00,VWS V14.01,2013-08-29 06:50:00,
2013-08-29 01:55:00,76.0,72.5,29.75,ESE,103,1.0,7.0,89,0.00,,CLR,0.00,VWS V14.01,2013-08-29 06:55:00,
2013-08-29 02:00:00,75.8,72.3,29.75,ESE,103,1.0,7.0,89,0.00,,CLR,0.00,VWS V14.01,2013-08-29 07:00:00,
2013-08-29 02:05:00,75.8,72.7,29.75,ESE,103,1.0,3.0,90,0.00,,CLR,0.00,VWS V14.01,2013-08-29 07:05:00,
2013-08-29 02:10:00,75.8,72.7,29.75,ESE,103,1.0,5.0,90,0.00,,CLR,0.00,VWS V14.01,2013-08-29 07:10:00,
2013-08-29 02:15:00,75.8,72.7,29.75,ESE,103,3.0,5.0,90,0.00,,CLR,0.00,VWS V14.01,2013-08-29 07:15:00,
2013-08-29 02:20:00,75.8,73.0,29.75,ESE,103,2.0,5.0,91,0.00,,CLR,0.00,VWS V14.01,2013-08-29 07:20:00,
2013-08-29 02:25:00,75.8,73.0,29.75,ESE,103,1.0,6.0,91,0.00,,CLR,0.00,VWS V14.01,2013-08-29 07:25:00,
2013-08-29 02:30:00,75.8,73.0,29.75,ESE,103,2.0,6.0,91,0.00,,CLR,0.00,VWS V14.01,2013-08-29 07:30:00,
2013-08-29 02:35:00,76.0,73.2,29.75,ESE,103,1.0,6.0,91,0.00,,CLR,0.00,VWS V14.01,2013-08-29 07:35:00,
2013-08-29 02:40:00,76.0,73.2,29.75,ESE,103,2.0,6.0,91,0.00,,CLR,0.00,VWS V14.01,2013-08-29 07:40:00,
2013-08-29 02:45:00,76.1,73.3,29.74,ESE,106,0.0,7.0,91,0.00,,CLR,0.00,VWS V14.01,2013-08-29 07:45:00,
2013-08-29 02:50:00,76.1,73.3,29.74,ESE,109,2.0,7.0,91,0.00,,CLR,0.00,VWS V14.01,2013-08-29 07:50:00,
2013-08-29 02:55:00,76.3,73.5,29.74,ESE,110,4.0,7.0,91,0.00,,CLR,0.00,VWS V14.01,2013-08-29 07:55:00,
2013-08-29 03:00:00,76.3,73.2,29.74,ESE,115,2.0,7.0,90,0.00,,CLR,0.00,VWS V14.01,2013-08-29 08:00:00,
2013-08-29 03:05:00,76.5,73.3,29.74,ESE,123,3.0,7.0,90,0.00,,CLR,0.00,VWS V14.01,2013-08-29 08:05:00,
2013-08-29 03:10:00,76.5,73.3,29.74,ESE,119,5.0,7.0,90,0.00,,CLR,0.00,VWS V14.01,2013-08-29 08:10:00,
2013-08-29 03:15:00,76.5,73.3,29.74,SE,126,1.0,7.0,90,0.00,,CLR,0.00,VWS V14.01,2013-08-29 08:15:00,
2013-08-29 03:20:00,76.5,73.0,29.74,SE,126,3.0,8.0,89,0.00,,CLR,0.00,VWS V14.01,2013-08-29 08:20:00,
2013-08-29 03:25:00,76.7,73.2,29.74,SE,130,3.0,8.0,89,0.00,,CLR,0.00,VWS V14.01,2013-08-29 08:25:00,
2013-08-29 03:30:00,76.8,73.0,29.74,SE,129,5.0,8.0,88,0.00,,CLR,0.00,VWS V14.01,2013-08-29 08:30:00,
2013-08-29 03:35:00,77.0,72.8,29.74,SE,132,2.0,10.0,87,0.00,,CLR,0.00,VWS V14.01,2013-08-29 08:35:00,
2013-08-29 03:40:00,77.2,73.0,29.74,ESE,120,6.0,10.0,87,0.00,,CLR,0.00,VWS V14.01,2013-08-29 08:40:00,
2013-08-29 03:45:00,77.2,73.0,29.74,ESE,122,3.0,10.0,87,0.00,,CLR,0.00,VWS V14.01,2013-08-29 08:45:00,
2013-08-29 03:50:00,77.2,73.0,29.74,ESE,122,2.0,10.0,87,0.00,,CLR,0.00,VWS V14.01,2013-08-29 08:50:00,
2013-08-29 03:55:00,77.2,73.0,29.74,ESE,122,0.0,10.0,87,0.00,,CLR,0.00,VWS V14.01,2013-08-29 08:55:00,
2013-08-29 04:00:00,77.0,73.2,29.74,ESE,122,2.0,10.0,88,0.00,,CLR,0.00,VWS V14.01,2013-08-29 09:00:00,
2013-08-29 04:05:00,76.8,73.0,29.74,ESE,122,2.0,7.0,88,0.00,,CLR,0.00,VWS V14.01,2013-08-29 09:05:00,
2013-08-29 04:10:00,76.8,73.3,29.74,ESE,122,0.0,7.0,89,0.00,,CLR,0.00,VWS V14.01,2013-08-29 09:10:00,
2013-08-29 04:15:00,76.7,73.2,29.74,ESE,123,2.0,7.0,89,0.00,,CLR,0.00,VWS V14.01,2013-08-29 09:15:00,
2013-08-29 04:20:00,76.7,73.6,29.74,ESE,122,7.0,7.0,90,0.00,,CLR,0.00,VWS V14.01,2013-08-29 09:20:00,
2013-08-29 04:25:00,76.5,73.3,29.74,ESE,119,2.0,7.0,90,0.00,,CLR,0.00,VWS V14.01,2013-08-29 09:25:00,
2013-08-29 04:30:00,76.5,73.3,29.74,ESE,118,0.0,7.0,90,0.00,,CLR,0.00,VWS V14.01,2013-08-29 09:30:00,
2013-08-29 04:35:00,76.5,73.7,29.74,ESE,118,1.0,3.0,91,0.00,,CLR,0.00,VWS V14.01,2013-08-29 09:35:00,
2013-08-29 04:40:00,76.3,73.5,29.74,ESE,118,1.0,3.0,91,0.00,,CLR,0.00,VWS V14.01,2013-08-29 09:40:00,
2013-08-29 04:45:00,76.1,73.6,29.73,ESE,118,3.0,5.0,92,0.00,,CLR,0.00,VWS V14.01,2013-08-29 09:45:00,
2013-08-29 04:50:00,76.1,73.6,29.73,ESE,118,2.0,5.0,92,0.00,,CLR,0.00,VWS V14.01,2013-08-29 09:50:00,
2013-08-29 04:55:00,76.0,73.5,29.73,ESE,118,6.0,6.0,92,0.00,,CLR,0.00,VWS V14.01,2013-08-29 09:55:00,
2013-08-29 05:00:00,75.8,73.6,29.73,ESE,118,3.0,6.0,93,0.00,,CLR,0.00,VWS V14.01,2013-08-29 10:00:00,
2013-08-29 05:05:00,75.8,73.6,29.73,ESE,108,7.0,7.0,93,0.00,,CLR,0.00,VWS V14.01,2013-08-29 10:05:00,
2013-08-29 05:10:00,75.6,73.4,29.73,ESE,105,7.0,8.0,93,0.00,,CLR,0.00,VWS V14.01,2013-08-29 10:10:00,
2013-08-29 05:15:00,75.6,73.4,29.74,ESE,105,3.0,10.0,93,0.00,,CLR,0.00,VWS V14.01,2013-08-29 10:15:00,
2013-08-29 05:20:00,75.6,73.8,29.74,ESE,105,2.0,10.0,94,0.00,,CLR,0.00,VWS V14.01,2013-08-29 10:20:00,
2013-08-29 05:25:00,75.6,73.8,29.74,ESE,102,2.0,10.0,94,0.00,,CLR,0.00,VWS V14.01,2013-08-29 10:25:00,
2013-08-29 05:30:00,75.6,73.8,29.74,ESE,103,2.0,10.0,94,0.00,,CLR,0.00,VWS V14.01,2013-08-29 10:30:00,
2013-08-29 05:35:00,75.4,73.6,29.74,ESE,103,1.0,4.0,94,0.00,,CLR,0.00,VWS V14.01,2013-08-29 10:35:00,
2013-08-29 05:40:00,75.4,73.6,29.74,ESE,103,2.0,4.0,94,0.00,,CLR,0.00,VWS V14.01,2013-08-29 10:40:00,
2013-08-29 05:45:00,75.4,73.6,29.75,ESE,103,2.0,4.0,94,0.00,,CLR,0.00,VWS V14.01,2013-08-29 10:45:00,
2013-08-29 05:50:00,75.3,73.5,29.75,ESE,103,0.0,4.0,94,0.00,,CLR,0.00,VWS V14.01,2013-08-29 10:50:00,
2013-08-29 05:55:00,75.3,73.5,29.75,ESE,103,3.0,4.0,94,0.00,,CLR,0.00,VWS V14.01,2013-08-29 10:55:00,
2013-08-29 06:00:00,75.1,73.6,29.75,East,99,9.0,11.0,95,0.00,,CLR,0.00,VWS V14.01,2013-08-29 11:00:00,
2013-08-29 06:05:00,75.1,73.6,29.75,ESE,108,12.0,12.0,95,0.00,,CLR,0.00,VWS V14.01,2013-08-29 11:05:00,
2013-08-29 06:10:00,75.1,73.6,29.75,East,101,3.0,13.0,95,0.00,,CLR,0.00,VWS V14.01,2013-08-29 11:10:00,
2013-08-29 06:15:00,74.9,73.4,29.75,ESE,102,1.0,13.0,95,0.00,,CLR,0.00,VWS V14.01,2013-08-29 11:15:00,
2013-08-29 06:20:00,74.9,73.4,29.75,ESE,102,0.0,13.0,95,0.00,,CLR,0.00,VWS V14.01,2013-08-29 11:20:00,
2013-08-29 06:25:00,75.1,73.6,29.75,ESE,102,6.0,13.0,95,0.00,,CLR,0.00,VWS V14.01,2013-08-29 11:25:00,
2013-08-29 06:30:00,75.1,73.6,29.75,ESE,109,1.0,13.0,95,0.00,,CLR,0.00,VWS V14.01,2013-08-29 11:30:00,
2013-08-29 06:35:00,75.1,73.6,29.75,ESE,108,2.0,6.0,95,0.00,,CLR,0.00,VWS V14.01,2013-08-29 11:35:00,
2013-08-29 06:40:00,75.1,73.6,29.75,ESE,113,2.0,7.0,95,0.00,,CLR,0.00,VWS V14.01,2013-08-29 11:40:00,
2013-08-29 06:45:00,75.1,73.6,29.75,ESE,113,2.0,7.0,95,0.00,,CLR,0.00,VWS V14.01,2013-08-29 11:45:00,
2013-08-29 06:50:00,74.9,73.4,29.75,ESE,113,0.0,7.0,95,0.00,,CLR,0.00,VWS V14.01,2013-08-29 11:50:00,
2013-08-29 06:54:00,74.9,73.7,29.75,ESE,113,2.0,7.0,96,0.00,,CLR,0.00,VWS V14.01,2013-08-29 11:54:00,
2013-08-29 06:59:00,74.9,74.0,29.76,ESE,113,1.0,7.0,97,0.00,,CLR,0.00,VWS V14.01,2013-08-29 11:59:00,
2013-08-29 07:04:00,74.9,74.0,29.76,SE,125,3.0,8.0,97,0.00,,CLR,0.00,VWS V14.01,2013-08-29 12:04:00,
2013-08-29 07:09:00,74.9,73.7,29.76,SE,125,2.0,8.0,96,0.00,,CLR,0.00,VWS V14.01,2013-08-29 12:09:00,
2013-08-29 07:14:00,74.9,73.7,29.75,ESE,123,1.0,8.0,96,0.00,,CLR,0.00,VWS V14.01,2013-08-29 12:14:00,
2013-08-29 07:19:00,74.9,73.7,29.75,ESE,123,3.0,8.0,96,0.00,,CLR,0.00,VWS V14.01,2013-08-29 12:19:00,
2013-08-29 07:24:00,75.1,73.9,29.75,ESE,123,2.0,8.0,96,0.00,,CLR,0.00,VWS V14.01,2013-08-29 12:24:00,
2013-08-29 07:29:00,75.1,73.9,29.75,ESE,123,2.0,8.0,96,0.00,,CLR,0.00,VWS V14.01,2013-08-29 12:29:00,
2013-08-29 07:34:00,75.3,74.1,29.75,ESE,123,3.0,6.0,96,0.00,,CLR,0.00,VWS V14.01,2013-08-29 12:34:00,
2013-08-29 07:39:00,75.4,74.2,29.75,ESE,119,5.0,8.0,96,0.00,,CLR,0.00,VWS V14.01,2013-08-29 12:39:00,
2013-08-29 07:44:00,75.6,74.4,29.75,SE,127,2.0,8.0,96,0.00,,CLR,0.00,VWS V14.01,2013-08-29 12:44:00,
2013-08-29 07:49:00,75.6,74.4,29.75,SE,136,7.0,10.0,96,0.00,,CLR,0.00,VWS V14.01,2013-08-29 12:49:00,
2013-08-29 07:54:00,75.8,74.3,29.75,SE,136,5.0,10.0,95,0.00,,CLR,0.00,VWS V14.01,2013-08-29 12:54:00,
2013-08-29 07:59:00,76.0,74.5,29.75,ESE,115,3.0,10.0,95,0.00,,CLR,0.00,VWS V14.01,2013-08-29 12:59:00,
2013-08-29 08:04:00,76.3,74.4,29.75,ESE,116,8.0,8.0,94,0.00,,CLR,0.00,VWS V14.01,2013-08-29 13:04:00,
2013-08-29 08:09:00,76.7,75.2,29.75,ESE,119,2.0,8.0,95,0.00,,CLR,0.00,VWS V14.01,2013-08-29 13:09:00,
2013-08-29 08:14:00,76.8,74.6,29.75,SE,129,1.0,8.0,93,0.00,,CLR,0.00,VWS V14.01,2013-08-29 13:14:00,
2013-08-29 08:19:00,77.2,74.7,29.75,SE,127,0.0,8.0,92,0.00,,CLR,0.00,VWS V14.01,2013-08-29 13:19:00,
2013-08-29 08:24:00,77.4,74.6,29.75,ESE,122,2.0,8.0,91,0.00,,CLR,0.00,VWS V14.01,2013-08-29 13:24:00,
2013-08-29 08:29:00,77.7,74.5,29.74,ESE,123,1.0,9.0,90,0.00,,CLR,0.00,VWS V14.01,2013-08-29 13:29:00,
2013-08-29 08:34:00,78.1,74.6,29.74,SE,133,2.0,8.0,89,0.00,,CLR,0.00,VWS V14.01,2013-08-29 13:34:00,
2013-08-29 08:39:00,78.5,74.3,29.74,ESE,120,3.0,8.0,87,0.00,,CLR,0.00,VWS V14.01,2013-08-29 13:39:00,
2013-08-29 08:44:00,78.8,74.3,29.74,SE,125,1.0,8.0,86,0.00,,CLR,0.00,VWS V14.01,2013-08-29 13:44:00,
2013-08-29 08:49:00,79.4,74.5,29.74,ESE,123,1.0,8.0,85,0.00,,CLR,0.00,VWS V14.01,2013-08-29 13:49:00,
2013-08-29 08:54:00,79.6,74.3,29.74,SSE,150,0.0,12.0,84,0.00,,CLR,0.00,VWS V14.01,2013-08-29 13:54:00,
2013-08-29 08:59:00,79.9,74.3,29.74,SE,144,4.0,12.0,83,0.00,,CLR,0.00,VWS V14.01,2013-08-29 13:59:00,
2013-08-29 09:04:00,80.5,74.5,29.74,SE,129,2.0,3.0,82,0.00,,CLR,0.00,VWS V14.01,2013-08-29 14:04:00,
2013-08-29 09:09:00,80.9,74.9,29.74,SE,139,1.0,5.0,82,0.00,,CLR,0.00,VWS V14.01,2013-08-29 14:09:00,
2013-08-29 09:14:00,81.1,74.0,29.74,SE,127,3.0,7.0,79,0.00,,CLR,0.00,VWS V14.01,2013-08-29 14:14:00,
2013-08-29 09:19:00,81.4,74.3,29.74,SE,137,2.0,7.0,79,0.00,,CLR,0.00,VWS V14.01,2013-08-29 14:19:00,
2013-08-29 09:24:00,81.6,74.5,29.74,SE,143,4.0,7.0,79,0.00,,CLR,0.00,VWS V14.01,2013-08-29 14:24:00,
2013-08-29 09:29:00,82.0,74.1,29.74,SE,134,1.0,7.0,77,0.00,,CLR,0.00,VWS V14.01,2013-08-29 14:29:00,
2013-08-29 09:34:00,82.4,74.5,29.74,SE,129,1.0,5.0,77,0.00,,CLR,0.00,VWS V14.01,2013-08-29 14:34:00,
2013-08-29 09:39:00,82.8,74.1,29.74,SE,129,3.0,5.0,75,0.00,,CLR,0.00,VWS V14.01,2013-08-29 14:39:00,
2013-08-29 09:44:00,82.8,74.5,29.74,ESE,122,2.0,6.0,76,0.00,,CLR,0.00,VWS V14.01,2013-08-29 14:44:00,
2013-08-29 09:49:00,82.8,73.3,29.74,ESE,115,2.0,8.0,73,0.00,,CLR,0.00,VWS V14.01,2013-08-29 14:49:00,
2013-08-29 09:54:00,83.2,73.7,29.74,ESE,112,2.0,8.0,73,0.00,,CLR,0.00,VWS V14.01,2013-08-29 14:54:00,
2013-08-29 09:59:00,83.6,74.0,29.74,ESE,112,2.0,8.0,73,0.00,,CLR,0.00,VWS V14.01,2013-08-29 14:59:00,
2013-08-29 10:04:00,83.6,73.6,29.74,ESE,120,5.0,10.0,72,0.00,,CLR,0.00,VWS V14.01,2013-08-29 15:04:00,
2013-08-29 10:09:00,83.6,73.6,29.74,ESE,123,2.0,10.0,72,0.00,,CLR,0.00,VWS V14.01,2013-08-29 15:09:00,
2013-08-29 10:14:00,84.0,73.2,29.74,ESE,123,5.0,10.0,70,0.00,,CLR,0.00,VWS V14.01,2013-08-29 15:14:00,
2013-08-29 10:19:00,84.5,74.5,29.74,SE,126,1.0,10.0,72,0.00,,CLR,0.00,VWS V14.01,2013-08-29 15:19:00,
2013-08-29 10:24:00,84.7,73.0,29.74,SE,127,4.0,11.0,68,0.00,,CLR,0.00,VWS V14.01,2013-08-29 15:24:00,
2013-08-29 10:29:00,84.7,73.8,29.73,ESE,119,6.0,11.0,70,0.00,,CLR,0.00,VWS V14.01,2013-08-29 15:29:00,
2013-08-29 10:34:00,84.9,74.0,29.73,ESE,109,11.0,12.0,70,0.00,,CLR,0.00,VWS V14.01,2013-08-29 15:34:00,
2013-08-29 10:39:00,84.9,72.7,29.73,ESE,112,7.0,12.0,67,0.00,,CLR,0.00,VWS V14.01,2013-08-29 15:39:00,
2013-08-29 10:44:00,85.3,73.1,29.72,ESE,105,6.0,12.0,67,0.00,,CLR,0.00,VWS V14.01,2013-08-29 15:44:00,
2013-08-29 10:49:00,85.7,73.0,29.72,ESE,105,5.0,12.0,66,0.00,,CLR,0.00,VWS V14.01,2013-08-29 15:49:00,
2013-08-29 10:54:00,86.3,73.6,29.72,ESE,123,2.0,12.0,66,0.00,,CLR,0.00,VWS V14.01,2013-08-29 15:54:00,
2013-08-29 10:59:00,86.5,73.8,29.73,ESE,112,6.0,12.0,66,0.00,,CLR,0.00,VWS V14.01,2013-08-29 15:59:00,
2013-08-29 11:04:00,87.0,73.4,29.73,ESE,109,3.0,10.0,64,0.00,,CLR,0.00,VWS V14.01,2013-08-29 16:04:00,
2013-08-29 11:09:00,87.6,73.9,29.73,SE,129,4.0,10.0,64,0.00,,CLR,0.00,VWS V14.01,2013-08-29 16:09:00,
2013-08-29 11:14:00,87.8,74.1,29.73,ESE,123,0.0,10.0,64,0.00,,CLR,0.00,VWS V14.01,2013-08-29 16:14:00,
2013-08-29 11:19:00,87.6,74.4,29.73,ESE,112,5.0,11.0,65,0.00,,CLR,0.00,VWS V14.01,2013-08-29 16:19:00,
2013-08-29 11:24:00,87.6,73.9,29.73,ESE,105,5.0,11.0,64,0.00,,CLR,0.00,VWS V14.01,2013-08-29 16:24:00,
2013-08-29 11:29:00,87.6,74.4,29.73,ESE,115,1.0,14.0,65,0.00,,CLR,0.00,VWS V14.01,2013-08-29 16:29:00,
2013-08-29 11:34:00,88.2,73.6,29.73,SE,146,11.0,11.0,62,0.00,,CLR,0.00,VWS V14.01,2013-08-29 16:34:00,
2013-08-29 11:39:00,88.0,72.9,29.73,SE,129,7.0,13.0,61,0.00,,CLR,0.00,VWS V14.01,2013-08-29 16:39:00,
2013-08-29 11:44:00,88.2,73.6,29.73,ESE,116,6.0,13.0,62,0.00,,CLR,0.00,VWS V14.01,2013-08-29 16:44:00,
2013-08-29 11:49:00,88.2,74.0,29.72,SW,226,2.0,13.0,63,0.00,,CLR,0.00,VWS V14.01,2013-08-29 16:49:00,
2013-08-29 11:54:00,88.8,73.6,29.72,ESE,113,1.0,13.0,61,0.00,,CLR,0.00,VWS V14.01,2013-08-29 16:54:00,
2013-08-29 11:59:00,88.6,73.4,29.72,ESE,120,3.0,13.0,61,0.00,,CLR,0.00,VWS V14.01,2013-08-29 16:59:00,
2013-08-29 12:04:00,88.8,73.1,29.72,ESE,119,3.0,9.0,60,0.00,,CLR,0.00,VWS V14.01,2013-08-29 17:04:00,
2013-08-29 12:09:00,88.6,73.9,29.72,ESE,110,0.0,12.0,62,0.00,,CLR,0.00,VWS V14.01,2013-08-29 17:09:00,
2013-08-29 12:14:00,88.8,72.6,29.72,SE,125,9.0,12.0,59,0.00,,CLR,0.00,VWS V14.01,2013-08-29 17:14:00,
2013-08-29 12:19:00,89.5,72.3,29.72,SE,133,0.0,13.0,57,0.00,,CLR,0.00,VWS V14.01,2013-08-29 17:19:00,
2013-08-29 12:24:00,89.5,71.7,29.72,SSE,151,4.0,13.0,56,0.00,,CLR,0.00,VWS V14.01,2013-08-29 17:24:00,
2013-08-29 12:29:00,89.7,71.9,29.72,SE,134,0.0,13.0,56,0.00,,CLR,0.00,VWS V14.01,2013-08-29 17:29:00,
2013-08-29 12:34:00,89.7,70.9,29.72,SE,130,2.0,10.0,54,0.00,,CLR,0.00,VWS V14.01,2013-08-29 17:34:00,
2013-08-29 12:39:00,90.3,69.7,29.72,SE,143,1.0,12.0,51,0.00,,CLR,0.00,VWS V14.01,2013-08-29 17:39:00,
2013-08-29 12:44:00,90.3,70.3,29.72,ESE,106,7.0,12.0,52,0.00,,CLR,0.00,VWS V14.01,2013-08-29 17:44:00,
2013-08-29 12:49:00,90.7,70.7,29.72,ESE,110,7.0,12.0,52,0.00,,CLR,0.00,VWS V14.01,2013-08-29 17:49:00,
2013-08-29 12:54:00,91.0,69.2,29.72,SE,136,2.0,13.0,49,0.00,,CLR,0.00,VWS V14.01,2013-08-29 17:54:00,
2013-08-29 12:59:00,91.0,70.4,29.72,ESE,116,8.0,13.0,51,0.00,,CLR,0.00,VWS V14.01,2013-08-29 17:59:00,
2013-08-29 13:04:00,91.0,69.2,29.71,SW,221,6.0,12.0,49,0.00,,CLR,0.00,VWS V14.01,2013-08-29 18:04:00,
2013-08-29 13:09:00,90.7,69.5,29.71,ESE,113,3.0,13.0,50,0.00,,CLR,0.00,VWS V14.01,2013-08-29 18:09:00,
2013-08-29 13:14:00,91.0,68.0,29.71,WSW,246,0.0,14.0,47,0.00,,CLR,0.00,VWS V14.01,2013-08-29 18:14:00,
2013-08-29 13:19:00,91.4,69.6,29.71,SE,127,1.0,14.0,49,0.00,,CLR,0.00,VWS V14.01,2013-08-29 18:19:00,
2013-08-29 13:24:00,91.4,69.0,29.71,SE,132,8.0,17.0,48,0.00,,CLR,0.00,VWS V14.01,2013-08-29 18:24:00,
2013-08-29 13:29:00,90.5,68.2,29.70,East,99,7.0,17.0,48,0.00,,CLR,0.00,VWS V14.01,2013-08-29 18:29:00,
2013-08-29 13:34:00,89.7,68.6,29.70,SE,130,8.0,15.0,50,0.00,,CLR,0.00,VWS V14.01,2013-08-29 18:34:00,
2013-08-29 13:39:00,89.7,69.8,29.70,SE,125,0.0,15.0,52,0.00,,CLR,0.00,VWS V14.01,2013-08-29 18:39:00,
2013-08-29 13:44:00,90.7,68.3,29.70,ESE,116,2.0,15.0,48,0.00,,CLR,0.00,VWS V14.01,2013-08-29 18:44:00,
2013-08-29 13:49:00,91.6,66.0,29.70,South,185,3.0,15.0,43,0.00,,CLR,0.00,VWS V14.01,2013-08-29 18:49:00,
2013-08-29 13:54:00,92.1,66.4,29.70,SE,126,8.0,15.0,43,0.00,,CLR,0.00,VWS V14.01,2013-08-29 18:54:00,
2013-08-29 13:59:00,92.1,67.7,29.70,ESE,103,4.0,15.0,45,0.00,,CLR,0.00,VWS V14.01,2013-08-29 18:59:00,
2013-08-29 14:04:00,92.3,67.9,29.69,WSW,238,3.0,10.0,45,0.00,,CLR,0.00,VWS V14.01,2013-08-29 19:04:00,
2013-08-29 14:09:00,92.3,67.9,29.69,ESE,120,7.0,18.0,45,0.00,,CLR,0.00,VWS V14.01,2013-08-29 19:09:00,
2013-08-29 14:14:00,92.5,69.3,29.69,SE,134,12.0,18.0,47,0.00,,CLR,0.00,VWS V14.01,2013-08-29 19:14:00,
2013-08-29 14:19:00,91.8,69.3,29.69,South,191,6.0,18.0,48,0.00,,CLR,0.00,VWS V14.01,2013-08-29 19:19:00,
2013-08-29 14:24:00,92.1,69.6,29.69,South,177,4.0,18.0,48,0.00,,CLR,0.00,VWS V14.01,2013-08-29 19:24:00,
2013-08-29 14:29:00,92.3,69.8,29.68,ESE,116,8.0,18.0,48,0.00,,CLR,0.00,VWS V14.01,2013-08-29 19:29:00,
2013-08-29 14:34:00,92.3,71.0,29.68,SE,127,6.0,11.0,50,0.00,,CLR,0.00,VWS V14.01,2013-08-29 19:34:00,
2013-08-29 14:39:00,92.3,69.8,29.68,SE,144,10.0,13.0,48,0.00,,CLR,0.00,VWS V14.01,2013-08-29 19:39:00,
2013-08-29 14:44:00,92.1,70.2,29.68,SE,132,15.0,16.0,49,0.00,,CLR,0.00,VWS V14.01,2013-08-29 19:44:00,
2013-08-29 14:49:00,92.1,69.0,29.67,SE,133,7.0,18.0,47,0.00,,CLR,0.00,VWS V14.01,2013-08-29 19:49:00,
2013-08-29 14:54:00,92.5,69.3,29.67,SE,143,7.0,18.0,47,0.00,,CLR,0.00,VWS V14.01,2013-08-29 19:54:00,
2013-08-29 14:59:00,92.9,70.3,29.67,WSW,238,11.0,18.0,48,0.00,,CLR,0.00,VWS V14.01,2013-08-29 19:59:00,
2013-08-29 15:04:00,92.9,70.3,29.67,SSW,204,0.0,10.0,48,0.00,,CLR,0.00,VWS V14.01,2013-08-29 20:04:00,
2013-08-29 15:09:00,92.9,69.7,29.67,SE,129,2.0,12.0,47,0.00,,CLR,0.00,VWS V14.01,2013-08-29 20:09:00,
2013-08-29 15:14:00,93.2,69.4,29.67,WSW,243,5.0,13.0,46,0.00,,CLR,0.00,VWS V14.01,2013-08-29 20:14:00,
2013-08-29 15:19:00,93.4,69.5,29.67,SE,133,5.0,13.0,46,0.00,,CLR,0.00,VWS V14.01,2013-08-29 20:19:00,
2013-08-29 15:24:00,92.7,70.2,29.67,SW,232,5.0,14.0,48,0.00,,CLR,0.00,VWS V14.01,2013-08-29 20:24:00,
2013-08-29 15:29:00,92.9,69.7,29.66,SSE,158,6.0,14.0,47,0.00,,CLR,0.00,VWS V14.01,2013-08-29 20:29:00,
2013-08-29 15:34:00,92.5,69.3,29.66,SE,139,4.0,13.0,47,0.00,,CLR,0.00,VWS V14.01,2013-08-29 20:34:00,
2013-08-29 15:39:00,92.9,69.7,29.66,SE,143,3.0,13.0,47,0.00,,CLR,0.00,VWS V14.01,2013-08-29 20:39:00,
2013-08-29 15:44:00,93.2,70.0,29.66,SW,230,6.0,13.0,47,0.00,,CLR,0.00,VWS V14.01,2013-08-29 20:44:00,
2013-08-29 15:49:00,92.1,69.0,29.66,SE,140,16.0,16.0,47,0.00,,CLR,0.00,VWS V14.01,2013-08-29 20:49:00,
2013-08-29 15:54:00,90.7,68.3,29.66,ESE,119,12.0,16.0,48,0.00,,CLR,0.00,VWS V14.01,2013-08-29 20:54:00,
2013-08-29 15:59:00,90.3,68.6,29.65,SE,133,7.0,16.0,49,0.00,,CLR,0.00,VWS V14.01,2013-08-29 20:59:00,
2013-08-29 16:04:00,90.3,69.2,29.65,ESE,123,7.0,10.0,50,0.00,,CLR,0.00,VWS V14.01,2013-08-29 21:04:00,
2013-08-29 16:09:00,90.1,69.6,29.65,ESE,119,5.0,13.0,51,0.00,,CLR,0.00,VWS V14.01,2013-08-29 21:09:00,
2013-08-29 16:14:00,89.9,69.9,29.65,SE,125,2.0,13.0,52,0.00,,CLR,0.00,VWS V14.01,2013-08-29 21:14:00,
2013-08-29 16:19:00,90.1,70.1,29.65,SSE,150,7.0,13.0,52,0.00,,CLR,0.00,VWS V14.01,2013-08-29 21:19:00,
2013-08-29 16:24:00,89.9,69.4,29.65,SSE,156,3.0,15.0,51,0.00,,CLR,0.00,VWS V14.01,2013-08-29 21:24:00,
2013-08-29 16:29:00,89.7,69.2,29.65,SE,142,10.0,15.0,51,0.00,,CLR,0.00,VWS V14.01,2013-08-29 21:29:00,
2013-08-29 16:34:00,89.5,67.8,29.65,SSE,153,2.0,14.0,49,0.00,,CLR,0.00,VWS V14.01,2013-08-29 21:34:00,
2013-08-29 16:39:00,89.5,69.0,29.65,SSW,209,0.0,14.0,51,0.00,,CLR,0.00,VWS V14.01,2013-08-29 21:39:00,
2013-08-29 16:44:00,89.3,67.7,29.65,SE,136,5.0,16.0,49,0.00,,CLR,0.00,VWS V14.01,2013-08-29 21:44:00,
2013-08-29 16:49:00,89.3,68.8,29.65,SE,125,2.0,16.0,51,0.00,,CLR,0.00,VWS V14.01,2013-08-29 21:49:00,
2013-08-29 16:54:00,89.3,68.8,29.65,SE,137,0.0,16.0,51,0.00,,CLR,0.00,VWS V14.01,2013-08-29 21:54:00,
2013-08-29 16:59:00,89.7,69.8,29.65,East,84,0.0,16.0,52,0.00,,CLR,0.00,VWS V14.01,2013-08-29 21:59:00,
2013-08-29 17:04:00,90.3,69.2,29.64,SSW,212,0.0,12.0,50,0.00,,CLR,0.00,VWS V14.01,2013-08-29 22:04:00,
2013-08-29 17:09:00,91.0,69.2,29.64,SSW,209,0.0,12.0,49,0.00,,CLR,0.00,VWS V14.01,2013-08-29 22:09:00,
2013-08-29 17:14:00,91.2,68.8,29.64,SSE,149,12.0,16.0,48,0.00,,CLR,0.00,VWS V14.01,2013-08-29 22:14:00,
2013-08-29 17:19:00,90.7,68.9,29.64,SE,136,0.0,16.0,49,0.00,,CLR,0.00,VWS V14.01,2013-08-29 22:19:00,
2013-08-29 17:24:00,90.3,69.2,29.64,ESE,118,2.0,16.0,50,0.00,,CLR,0.00,VWS V14.01,2013-08-29 22:24:00,
2013-08-29 17:29:00,90.1,70.1,29.64,ESE,123,1.0,16.0,52,0.00,,CLR,0.00,VWS V14.01,2013-08-29 22:29:00,
2013-08-29 17:34:00,89.7,70.3,29.64,ESE,116,1.0,11.0,53,0.00,,CLR,0.00,VWS V14.01,2013-08-29 22:34:00,
2013-08-29 17:39:00,89.3,69.9,29.64,South,188,0.0,11.0,53,0.00,,CLR,0.00,VWS V14.01,2013-08-29 22:39:00,
2013-08-29 17:44:00,89.0,69.7,29.64,SE,140,14.0,14.0,53,0.00,,CLR,0.00,VWS V14.01,2013-08-29 22:44:00,
2013-08-29 17:49:00,88.6,69.8,29.64,SW,219,1.0,14.0,54,0.00,,CLR,0.00,VWS V14.01,2013-08-29 22:49:00,
2013-08-29 17:54:00,88.4,69.7,29.64,SW,222,6.0,14.0,54,0.00,,CLR,0.00,VWS V14.01,2013-08-29 22:54:00,
2013-08-29 17:59:00,88.4,69.7,29.64,ESE,116,8.0,14.0,54,0.00,,CLR,0.00,VWS V14.01,2013-08-29 22:59:00,
2013-08-29 18:04:00,89.0,70.2,29.64,SE,130,2.0,11.0,54,0.00,,CLR,0.00,VWS V14.01,2013-08-29 23:04:00,
2013-08-29 18:09:00,89.5,70.1,29.64,WSW,240,3.0,11.0,53,0.00,,CLR,0.00,VWS V14.01,2013-08-29 23:09:00,
2013-08-29 18:14:00,89.7,70.9,29.64,SE,140,7.0,12.0,54,0.00,,CLR,0.00,VWS V14.01,2013-08-29 23:14:00,
2013-08-29 18:19:00,89.7,70.3,29.63,SW,230,1.0,14.0,53,0.00,,CLR,0.00,VWS V14.01,2013-08-29 23:19:00,
2013-08-29 18:24:00,90.1,71.2,29.63,SSE,150,1.0,14.0,54,0.00,,CLR,0.00,VWS V14.01,2013-08-29 23:24:00,
2013-08-29 18:29:00,90.1,71.2,29.63,SW,222,6.0,14.0,54,0.00,,CLR,0.00,VWS V14.01,2013-08-29 23:29:00,
2013-08-29 18:34:00,90.1,70.7,29.64,SSW,209,2.0,5.0,53,0.00,,CLR,0.00,VWS V14.01,2013-08-29 23:34:00,
2013-08-29 18:39:00,90.3,71.4,29.64,SW,222,0.0,7.0,54,0.00,,CLR,0.00,VWS V14.01,2013-08-29 23:39:00,
2013-08-29 18:44:00,90.1,71.2,29.64,SE,143,3.0,8.0,54,0.00,,CLR,0.00,VWS V14.01,2013-08-29 23:44:00,
2013-08-29 18:49:00,89.7,70.9,29.64,SSE,164,4.0,12.0,54,0.00,,CLR,0.00,VWS V14.01,2013-08-29 23:49:00,
2013-08-29 18:54:00,89.5,71.2,29.64,SE,144,9.0,12.0,55,0.00,,CLR,0.00,VWS V14.01,2013-08-29 23:54:00,
2013-08-29 18:59:00,89.0,71.3,29.64,SSE,156,0.0,12.0,56,0.00,,CLR,0.00,VWS V14.01,2013-08-29 23:59:00,
2013-08-29 19:04:00,88.6,70.9,29.64,SSE,150,5.0,5.0,56,0.00,,CLR,0.00,VWS V14.01,2013-08-30 00:04:00,
2013-08-29 19:09:00,88.4,71.8,29.64,SSE,150,0.0,5.0,58,0.00,,CLR,0.00,VWS V14.01,2013-08-30 00:09:00,
2013-08-29 19:14:00,88.0,71.4,29.64,South,178,0.0,5.0,58,0.00,,CLR,0.00,VWS V14.01,2013-08-30 00:14:00,
2013-08-29 19:19:00,87.6,71.5,29.64,South,171,0.0,5.0,59,0.00,,CLR,0.00,VWS V14.01,2013-08-30 00:19:00,
2013-08-29 19:24:00,87.6,71.0,29.64,South,173,0.0,5.0,58,0.00,,CLR,0.00,VWS V14.01,2013-08-30 00:24:00,
2013-08-29 19:29:00,87.6,71.5,29.64,South,173,0.0,5.0,59,0.00,,CLR,0.00,VWS V14.01,2013-08-30 00:29:00,
2013-08-29 19:34:00,87.4,71.3,29.64,SSE,158,0.0,1.0,59,0.00,,CLR,0.00,VWS V14.01,2013-08-30 00:34:00,
2013-08-29 19:39:00,87.2,71.6,29.64,SSE,158,0.0,2.0,60,0.00,,CLR,0.00,VWS V14.01,2013-08-30 00:39:00,
2013-08-29 19:44:00,86.7,71.7,29.64,SSE,158,0.0,2.0,61,0.00,,CLR,0.00,VWS V14.01,2013-08-30 00:44:00,
2013-08-29 19:49:00,86.1,72.0,29.63,SSE,158,0.0,2.0,63,0.00,,CLR,0.00,VWS V14.01,2013-08-30 00:49:00,
2013-08-29 19:54:00,85.5,71.9,29.63,SSE,158,0.0,2.0,64,0.00,,CLR,0.00,VWS V14.01,2013-08-30 00:54:00,
2013-08-29 19:59:00,85.1,71.6,29.63,SSE,158,0.0,2.0,64,0.00,,CLR,0.00,VWS V14.01,2013-08-30 00:59:00,
2013-08-29 20:04:00,84.9,71.8,29.63,SSE,158,0.0,0.0,65,0.00,,CLR,0.00,VWS V14.01,2013-08-30 01:04:00,
2013-08-29 20:09:00,84.5,72.3,29.63,SSE,158,0.0,0.0,67,0.00,,CLR,0.00,VWS V14.01,2013-08-30 01:09:00,
2013-08-29 20:14:00,84.0,72.3,29.63,SSE,158,0.0,0.0,68,0.00,,CLR,0.00,VWS V14.01,2013-08-30 01:14:00,
2013-08-29 20:19:00,83.8,72.6,29.62,SSE,158,0.0,0.0,69,0.00,,CLR,0.00,VWS V14.01,2013-08-30 01:19:00,
2013-08-29 20:24:00,83.4,72.2,29.62,SSE,158,0.0,0.0,69,0.00,,CLR,0.00,VWS V14.01,2013-08-30 01:24:00,
2013-08-29 20:29:00,83.2,72.0,29.62,SSE,158,0.0,1.0,69,0.00,,CLR,0.00,VWS V14.01,2013-08-30 01:29:00,
2013-08-29 20:34:00,83.0,72.2,29.63,SSE,158,0.0,0.0,70,0.00,,CLR,0.00,VWS V14.01,2013-08-30 01:34:00,
2013-08-29 20:39:00,82.8,72.0,29.63,SSE,158,0.0,0.0,70,0.00,,CLR,0.00,VWS V14.01,2013-08-30 01:39:00,
2013-08-29 20:44:00,82.2,71.9,29.63,SSE,158,0.0,2.0,71,0.00,,CLR,0.00,VWS V14.01,2013-08-30 01:44:00,
2013-08-29 20:49:00,82.0,72.1,29.63,SSE,158,0.0,2.0,72,0.00,,CLR,0.00,VWS V14.01,2013-08-30 01:49:00,
2013-08-29 20:54:00,81.6,72.1,29.63,SSE,158,0.0,2.0,73,0.00,,CLR,0.00,VWS V14.01,2013-08-30 01:54:00,
2013-08-29 20:59:00,81.6,72.1,29.63,SSE,158,0.0,2.0,73,0.00,,CLR,0.00,VWS V14.01,2013-08-30 01:59:00,
2013-08-29 21:04:00,81.2,71.7,29.63,SSE,158,0.0,0.0,73,0.00,,CLR,0.00,VWS V14.01,2013-08-30 02:04:00,
2013-08-29 21:09:00,81.2,72.1,29.63,SSE,158,0.0,0.0,74,0.00,,CLR,0.00,VWS V14.01,2013-08-30 02:09:00,
2013-08-29 21:14:00,81.1,72.0,29.63,SSE,157,3.0,3.0,74,0.00,,CLR,0.00,VWS V14.01,2013-08-30 02:14:00,
2013-08-29 21:19:00,80.9,71.8,29.63,SSE,157,0.0,3.0,74,0.00,,CLR,0.00,VWS V14.01,2013-08-30 02:19:00,
2013-08-29 21:24:00,80.7,72.0,29.63,SSE,157,0.0,3.0,75,0.00,,CLR,0.00,VWS V14.01,2013-08-30 02:24:00,
2013-08-29 21:29:00,80.7,72.0,29.63,SSE,157,0.0,3.0,75,0.00,,CLR,0.00,VWS V14.01,2013-08-30 02:29:00,
2013-08-29 21:34:00,80.7,72.0,29.63,SSE,157,0.0,1.0,75,0.00,,CLR,0.00,VWS V14.01,2013-08-30 02:34:00,
2013-08-29 21:39:00,80.7,72.0,29.63,SSE,157,0.0,1.0,75,0.00,,CLR,0.00,VWS V14.01,2013-08-30 02:39:00,
2013-08-29 21:44:00,80.5,71.8,29.63,SSE,157,0.0,1.0,75,0.00,,CLR,0.00,VWS V14.01,2013-08-30 02:44:00,
2013-08-29 21:49:00,80.5,71.8,29.63,SSE,157,0.0,1.0,75,0.00,,CLR,0.00,VWS V14.01,2013-08-30 02:49:00,
2013-08-29 21:54:00,80.5,71.8,29.63,SSE,157,0.0,1.0,75,0.00,,CLR,0.00,VWS V14.01,2013-08-30 02:54:00,
2013-08-29 21:59:00,80.3,72.1,29.63,SSE,157,0.0,1.0,76,0.00,,CLR,0.00,VWS V14.01,2013-08-30 02:59:00,
2013-08-29 22:04:00,80.1,72.2,29.63,SSE,157,0.0,1.0,77,0.00,,CLR,0.00,VWS V14.01,2013-08-30 03:04:00,
2013-08-29 22:09:00,79.9,72.1,29.63,SSE,157,0.0,1.0,77,0.00,,CLR,0.00,VWS V14.01,2013-08-30 03:09:00,
2013-08-29 22:14:00,79.8,72.3,29.63,SSE,157,0.0,1.0,78,0.00,,CLR,0.00,VWS V14.01,2013-08-30 03:14:00,
2013-08-29 22:19:00,79.6,72.5,29.63,SSE,157,0.0,1.0,79,0.00,,CLR,0.00,VWS V14.01,2013-08-30 03:19:00,
2013-08-29 22:24:00,79.4,72.3,29.63,SSE,157,0.0,1.0,79,0.00,,CLR,0.00,VWS V14.01,2013-08-30 03:24:00,
2013-08-29 22:29:00,79.2,72.5,29.63,SSE,157,0.0,1.0,80,0.00,,CLR,0.00,VWS V14.01,2013-08-30 03:29:00,
2013-08-29 22:34:00,79.0,72.3,29.63,SSE,157,0.0,0.0,80,0.00,,CLR,0.00,VWS V14.01,2013-08-30 03:34:00,
2013-08-29 22:39:00,79.0,72.3,29.63,SSE,157,0.0,0.0,80,0.00,,CLR,0.00,VWS V14.01,2013-08-30 03:39:00,
2013-08-29 22:44:00,78.8,72.1,29.63,SSE,157,0.0,0.0,80,0.00,,CLR,0.00,VWS V14.01,2013-08-30 03:44:00,
2013-08-29 22:49:00,78.8,72.1,29.63,SSE,157,0.0,1.0,80,0.00,,CLR,0.00,VWS V14.01,2013-08-30 03:49:00,
2013-08-29 22:54:00,78.6,72.3,29.63,SSE,157,0.0,1.0,81,0.00,,CLR,0.00,VWS V14.01,2013-08-30 03:54:00,
2013-08-29 22:59:00,78.6,72.3,29.63,SSE,157,0.0,1.0,81,0.00,,CLR,0.00,VWS V14.01,2013-08-30 03:59:00,
2013-08-29 23:01:00,78.6,72.3,29.63,SSE,157,0.0,0.0,81,0.00,,CLR,0.00,VWS V14.01,2013-08-30 04:01:00,
2013-08-29 23:02:00,78.6,72.3,29.63,SSE,157,0.0,0.0,81,0.00,,CLR,0.00,VWS V14.01,2013-08-30 04:02:00,
2013-08-29 23:07:00,78.5,72.2,29.63,SSE,157,0.0,0.0,81,0.00,,CLR,0.00,VWS V14.01,2013-08-30 04:07:00,
2013-08-29 23:12:00,78.3,72.4,29.63,SSE,157,0.0,0.0,82,0.00,,CLR,0.00,VWS V14.01,2013-08-30 04:12:00,
2013-08-29 23:17:00,78.3,72.4,29.62,SSE,157,0.0,0.0,82,0.00,,CLR,0.00,VWS V14.01,2013-08-30 04:17:00,
2013-08-29 23:22:00,78.1,72.2,29.62,SSE,157,0.0,1.0,82,0.00,,CLR,0.00,VWS V14.01,2013-08-30 04:22:00,
2013-08-29 23:27:00,78.1,72.2,29.62,SSE,157,0.0,1.0,82,0.00,,CLR,0.00,VWS V14.01,2013-08-30 04:27:00,
2013-08-29 23:32:00,78.1,72.2,29.62,SSE,157,0.0,0.0,82,0.00,,CLR,0.00,VWS V14.01,2013-08-30 04:32:00,
2013-08-29 23:37:00,77.9,72.0,29.62,SSE,156,1.0,1.0,82,0.00,,CLR,0.00,VWS V14.01,2013-08-30 04:37:00,
2013-08-29 23:42:00,77.9,72.0,29.62,SSE,156,0.0,4.0,82,0.00,,CLR,0.00,VWS V14.01,2013-08-30 04:42:00,
2013-08-29 23:47:00,77.9,72.0,29.62,SSE,156,2.0,4.0,82,0.00,,CLR,0.00,VWS V14.01,2013-08-30 04:47:00,
2013-08-29 23:52:00,77.9,72.0,29.62,SSE,156,0.0,4.0,82,0.00,,CLR,0.00,VWS V14.01,2013-08-30 04:52:00,
2013-08-29 23:57:00,77.7,72.1,29.62,SSE,156,0.0,4.0,83,0.00,,CLR,0.00,VWS V14.01,2013-08-30 04:57:00,